This is the latest recevied weather packets stored in our database for station/object K6CQU-13. If no packets are shown the sender has not sent any weather packets the latest 10 day(s).
| Time | Temp. | Humidity | Pressure | Rain* | Wind** | Luminosity | Snow |
|---|---|---|---|---|---|---|---|
| 1778010617 | 16.67° C | 74% | 1015.8 hPa | 0 mm | - | 212 W/m² | - |
| 1778010317 | 16.67° C | 73% | 1015.9 hPa | 0 mm | - | 283 W/m² | - |
| 1778010017 | 17.22° C | 74% | 1015.9 hPa | 0 mm | - | 391 W/m² | - |
| 1778009718 | 17.22° C | 74% | 1015.9 hPa | 0 mm | - | 557 W/m² | - |
| 1778009418 | 16.67° C | 77% | 1015.8 hPa | 0 mm | - | 883 W/m² | - |
| 1778009118 | 16.11° C | 77% | 1015.9 hPa | 0 mm | - | 854 W/m² | - |
| 1778008817 | 16.11° C | 77% | 1015.9 hPa | 0 mm | - | 411 W/m² | - |
| 1778008517 | 16.11° C | 78% | 1015.8 hPa | 0 mm | - | 433 W/m² | - |
| 1778008218 | 15.56° C | 79% | 1015.8 hPa | 0 mm | - | 453 W/m² | - |
| 1778007917 | 15.56° C | 78% | 1015.9 hPa | 0 mm | - | 288 W/m² | - |
| 1778007617 | 15° C | 78% | 1015.9 hPa | 0 mm | - | 259 W/m² | - |
| 1778007318 | 15° C | 80% | 1015.9 hPa | 0 mm | - | 209 W/m² | - |
| 1778007018 | 15° C | 80% | 1015.9 hPa | 0 mm | - | 178 W/m² | - |
| 1778006717 | 15° C | 80% | 1015.9 hPa | 0 mm | - | 161 W/m² | - |
| 1778006417 | 15° C | 80% | 1015.9 hPa | 0 mm | - | 168 W/m² | - |
| 1778006117 | 15° C | 80% | 1015.8 hPa | 0 mm | - | 190 W/m² | - |
| 1778005818 | 15° C | 81% | 1015.8 hPa | 0 mm | - | 228 W/m² | - |
| 1778005517 | 15° C | 81% | 1015.8 hPa | 0 mm | - | 254 W/m² | - |
| 1778005217 | 15° C | 81% | 1015.8 hPa | 0 mm | - | 250 W/m² | - |
| 1778004917 | 15° C | 82% | 1015.8 hPa | 0 mm | - | 315 W/m² | - |
| 1778004617 | 14.44° C | 83% | 1015.7 hPa | 0 mm | - | 334 W/m² | - |
| 1778004317 | 14.44° C | 83% | 1015.7 hPa | 0 mm | - | 253 W/m² | - |
| 1778004017 | 14.44° C | 84% | 1015.7 hPa | 0 mm | - | 217 W/m² | - |
| 1778003717 | 14.44° C | 83% | 1015.7 hPa | 0 mm | - | 207 W/m² | - |
| 1778003417 | 14.44° C | 84% | 1015.7 hPa | 0 mm | - | 203 W/m² | - |
* Rain latest hour (hover to see other rain measurements)
** Current wind speed in m/s (hover to see current wind gust speed)